Location: Antioch
(38.0049°N, 121.8058°W)
Time: 13:15:25
(UTC+00:00)

Cosmos 1300 Rocket - Pass Details

Date: 11 February 2026
Orbit: 594 x 619 km, 82.5° (Epoch: 16 March)

Event Time Altitude Azimuth Distance (km) Brightness Sun altitude
Rises 13:49:02 0° 180° (S) 2,866 7.1 -14.8°
Reaches altitude 10° 13:51:15 10° 178° (S) 1,969 6.2 -14.4°
Maximum altitude 13:55:35 69° 95° (E) 662 3.9 -13.5°
Drops below altitude 10° 13:59:58 10° 12° (NNE) 1,992 6.2 -12.7°
Sets 14:02:13 0° 10° (N) 2,902 7.0 -12.2°
